Edwards AFB North Base, CA

6:15 PM PST on January 17, 2018 (GMT -0800)
Edwards AFB North Base

Weather History for K9L2 - January, 2013

Change the Weather History Date:

Thursday, January 24, 2013

  Actual Average (KEDW) Record (KEDW)
Temperature  
Mean Temperature 50 °F -  
Max Temperature 57 °F 58 °F 69 °F (2003)
Min Temperature 44 °F 31 °F 19 °F (2002)
Degree Days  
Heating Degree Days 14    
Moisture  
Dew Point 43 °F    
Average Humidity 74    
Maximum Humidity 93    
Minimum Humidity 39    
Precipitation  
Precipitation 0.09 in - - ()
Sea Level Pressure  
Sea Level Pressure 30.18 in    
Wind  
Wind Speed 3 mph (NNE)    
Max Wind Speed 8 mph    
Max Gust Speed -    
Visibility 10 miles    
Events Rain    
Averages and records for this station are not official NWS values.
T = Trace of Precipitation, MM = Missing Value Source: NWS Daily Summary

Daily Weather History Graph

Daily Weather History Graph

Search for Another Location

Airport or City:

Trip Planner

Search our weather history database for the weather conditions in past years. The results will help you decide how hot, cold, wet, or windy it might be!

Date:

Astronomy

Jan. 24, 2013 Rise Set
Actual Time 6:55 AM PST 5:12 PM PST
Civil Twilight 6:28 AM PST 5:39 PM PST
Nautical Twilight 5:57 AM PST 6:10 PM PST
Astronomical Twilight 5:27 AM PST 6:40 PM PST
Moon 3:19 PM PST (1/24) 4:54 AM PST (1/24)
Length of Visible Light 11h 11m
Length of Day
10h 17m
Waxing Gibbous, 95% of the Moon is Illuminated
Jan 24
Waxing Gibbous
Jan 26
Full
Feb 3
Last Quarter
Feb 9
New
Feb 17
First Quarter

Hourly Weather History & Observations

Time (PST) Temp. Windchill Dew Point Humidity Pressure Visibility Wind Dir Wind Speed Gust Speed Precip Events Conditions
12:55 AM 50.0 °F - 28.9 °F 44% 30.12 in 10.0 mi NW 4.6 mph - N/A   Overcast
1:55 AM 50.0 °F - 26.1 °F 39% 30.12 in 10.0 mi WNW 3.5 mph - N/A   Overcast
2:55 AM 48.0 °F - 32.0 °F 54% 30.12 in 10.0 mi Calm Calm - 0.00 in   Overcast
3:55 AM 48.0 °F - 35.1 °F 61% 30.11 in 10.0 mi East 3.5 mph - 0.00 in   Overcast
4:55 AM 48.0 °F - 35.1 °F 61% 30.12 in 10.0 mi Calm Calm - N/A   Overcast
5:55 AM 46.0 °F - 39.0 °F 76% 30.13 in 10.0 mi Calm Calm - 0.00 in Rain Light Rain
6:55 AM 44.6 °F - 42.8 °F 93% 30.15 in 10.0 mi Calm Calm - N/A Rain Light Rain
7:50 AM - - - N/A% - - North - - N/A   Unknown
7:55 AM 46.4 °F 45.2 °F 42.8 °F 87% - 9.0 mi South 3.5 mph - N/A Rain Light Rain
8:49 AM 46.4 °F 44.3 °F 44.6 °F 93% 30.20 in 9.0 mi South 4.6 mph - 0.00 in   Overcast
8:55 AM 46.9 °F - 44.1 °F 90% 30.22 in 8.0 mi SSW 3.5 mph - 0.00 in Rain Light Rain
9:19 AM 46.4 °F - 42.8 °F 87% 30.21 in 5.0 mi Calm Calm - 0.01 in Rain Light Rain
9:55 AM 46.9 °F - 44.1 °F 90% 30.23 in 7.0 mi NNE 5.8 mph - 0.05 in Rain Light Rain
10:55 AM 48.0 °F - 45.0 °F 89% 30.24 in 10.0 mi ENE 4.6 mph - 0.04 in   Overcast
11:30 AM 48.2 °F - 44.6 °F 87% 30.22 in 10.0 mi North 3.5 mph - 0.00 in   Mostly Cloudy
11:55 AM 50.0 °F - 45.0 °F 83% 30.21 in 10.0 mi NNE 3.5 mph - 0.00 in   Partly Cloudy
12:55 PM 53.1 °F - 45.0 °F 74% 30.19 in 10.0 mi NW 3.5 mph - N/A   Mostly Cloudy
1:12 PM 55.4 °F - 46.4 °F 72% 30.17 in 10.0 mi Variable 3.5 mph - N/A   Overcast
1:55 PM 55.0 °F - 44.1 °F 67% 30.17 in 10.0 mi Calm Calm - N/A   Overcast
2:03 PM 53.6 °F - 44.6 °F 72% 30.17 in 10.0 mi Calm Calm - N/A   Overcast
2:09 PM 55.4 °F - 44.6 °F 67% 30.17 in 10.0 mi NE 3.5 mph - N/A   Overcast
2:29 PM 55.4 °F - 44.6 °F 67% 30.17 in 10.0 mi North 4.6 mph - N/A   Overcast
2:55 PM 57.0 °F - 46.0 °F 67% 30.17 in 10.0 mi NE 5.8 mph - N/A   Overcast
3:05 PM 57.2 °F - 44.6 °F 63% 30.16 in 10.0 mi NE 6.9 mph - N/A   Overcast
3:14 PM 57.2 °F - 46.4 °F 67% 30.16 in 10.0 mi NE 5.8 mph - N/A   Overcast
3:55 PM 57.0 °F - 45.0 °F 64% 30.17 in 10.0 mi NE 3.5 mph - N/A   Overcast
4:00 PM 57.2 °F - 44.6 °F 63% 30.16 in 10.0 mi NNE 4.6 mph - N/A   Overcast
4:31 PM 57.2 °F - 44.6 °F 63% 30.17 in 10.0 mi NNE 4.6 mph - N/A   Mostly Cloudy
4:55 PM 55.9 °F - 45.0 °F 67% 30.18 in 10.0 mi ENE 3.5 mph - N/A   Mostly Cloudy
5:55 PM 54.0 °F - 46.9 °F 77% 30.20 in 10.0 mi NNW 5.8 mph - N/A   Overcast
6:13 PM 53.6 °F - 46.4 °F 77% 30.19 in 10.0 mi NNW 5.8 mph - N/A   Mostly Cloudy
6:55 PM 52.0 °F - 46.0 °F 80% 30.21 in 10.0 mi North 4.6 mph - N/A   Clear
7:55 PM 48.9 °F - 45.0 °F 86% 30.22 in 10.0 mi NNE 5.8 mph - N/A   Clear
8:34 PM 48.2 °F - 44.6 °F 87% 30.21 in 10.0 mi NE 5.8 mph - N/A   Mostly Cloudy
8:55 PM 50.0 °F - 44.6 °F 82% 30.21 in 10.0 mi NE 8.1 mph - N/A   Overcast
9:15 PM 50.0 °F - 44.6 °F 82% 30.21 in 10.0 mi NNE 6.9 mph - N/A   Overcast
9:55 PM 48.9 °F - 44.1 °F 83% 30.23 in 10.0 mi NNW 4.6 mph - N/A   Overcast
10:55 PM 48.9 °F - 44.1 °F 83% 30.23 in 10.0 mi NNW 4.6 mph - N/A   Overcast
11:55 PM 50.0 °F - 44.1 °F 80% 30.24 in 10.0 mi North 4.6 mph - N/A   Overcast